Date,TemperatureHighF,TemperatureAvgF,TemperatureLowF,DewpointHighF,DewpointAvgF,DewpointLowF,HumidityHigh,HumidityAvg,HumidityLow,PressureMaxIn,PressureMinIn,WindSpeedMaxMPH,WindSpeedAvgMPH,GustSpeedMaxMPH,PrecipitationSumIn
2013-3-1,49.1,41.9,35.2,31.6,26.9,22.7,73,55,42,29.90,29.76,5,1,12,0.00
2013-3-2,41.9,37.9,35.1,24.0,22.7,21.0,59,54,45,29.91,29.82,8,1,12,0.00
2013-3-3,49.5,37.9,28.6,23.8,19.2,15.2,75,49,26,29.94,29.79,8,1,16,0.00
2013-3-4,52.7,37.8,26.1,19.8,13.1,5.2,60,40,15,30.06,29.93,5,1,11,0.00
2013-3-5,55.8,39.4,28.2,36.4,24.8,15.7,97,60,25,30.10,29.69,6,1,11,0.42
2013-3-6,41.2,37.3,33.8,40.9,36.0,32.0,99,95,73,29.97,29.40,14,4,30,1.01
2013-3-7,57.0,43.5,33.6,33.2,27.7,22.6,84,56,30,30.18,29.96,11,2,21,0.00
2013-3-8,53.4,42.8,34.7,28.0,26.0,21.6,72,53,33,30.26,30.13,11,2,20,0.00
2013-3-9,65.5,47.9,36.7,27.5,22.8,6.4,65,43,11,30.34,30.24,9,1,14,0.00
2013-3-10,70.5,49.9,31.8,39.9,23.1,0.7,88,48,10,30.34,30.22,5,1,9,0.00
2013-3-11,69.6,55.1,39.4,52.7,46.0,38.3,99,74,46,30.26,29.94,9,2,16,0.00
2013-3-12,75.9,60.7,46.8,65.3,54.4,33.2,99,81,51,29.96,29.70,8,3,15,0.38
2013-3-13,58.8,46.2,35.1,38.5,27.9,13.5,89,53,22,30.09,29.91,7,1,18,0.00
2013-3-14,56.7,42.4,30.4,19.4,13.4,-0.1,58,34,11,30.18,30.03,8,1,17,0.00
2013-3-15,63.9,47.6,31.1,33.8,22.1,10.1,58,39,16,30.13,29.82,6,1,16,0.00
2013-3-16,75.2,57.4,47.1,56.6,45.5,33.1,99,67,41,29.87,29.56,10,1,18,0.37
2013-3-17,50.7,41.2,37.4,48.8,38.7,34.0,97,91,86,30.28,29.86,7,1,10,0.14
2013-3-18,39.6,36.4,34.2,39.3,36.1,33.9,99,99,97,30.29,29.86,5,1,11,0.37
2013-3-19,70.2,49.4,36.3,45.7,27.2,-4.2,99,61,10,29.97,29.73,8,1,19,0.01
2013-3-20,62.1,48.9,32.9,16.9,4.6,-7.8,46,18,10,30.05,29.76,5,1,12,0.00
2013-3-21,47.8,38.9,30.6,28.9,16.6,3.3,85,43,18,29.95,29.70,11,2,25,0.00
2013-3-22,54.9,39.8,25.5,18.0,10.6,4.7,53,32,13,30.02,29.89,5,1,11,0.00
2013-3-23,60.8,44.7,29.1,28.9,19.4,5.7,79,42,12,30.07,29.91,5,1,10,0.00
2013-3-24,45.3,37.7,33.1,33.5,29.1,23.2,98,73,49,29.99,29.62,5,1,11,0.08
2013-3-25,34.0,33.8,33.8,33.2,33.0,33.0,97,97,97,29.63,29.58,2,0,5,0.00
2013-3-27,57.9,48.4,37.4,28.9,22.3,17.4,69,37,25,30.17,30.06,6,1,14,0.00
2013-3-28,58.5,45.5,34.0,27.3,23.7,20.3,65,44,23,30.26,30.12,6,1,13,0.00
2013-3-29,64.2,49.1,38.3,31.1,25.8,16.5,65,43,17,30.29,30.15,5,1,11,0.00
2013-3-30,69.3,52.6,36.0,37.4,26.9,11.7,83,44,12,30.23,30.09,6,1,12,0.00
2013-3-31,59.7,51.2,46.0,55.8,44.9,29.8,99,81,51,30.12,29.74,5,0,8,0.28